User: anonymous   Login
Location: Unspecified
(0.0000°N, 0.0000°E)
Time: 08:32:45
(UTC+02:00)
Language:

ARIANE 5 R/B - Orbit

View from above orbital plane
View from above orbital plane
View from above satellite
View from above satellite

Ground track
Ground track

The orbit data is extracted from the following two-line orbital elements,

1 27387U 02009B   16147.47528953  .00000010  00000-0  18090-4 0  9993
2 27387  98.4139  99.0862 0031744 209.7146 150.2238 14.35898372746047
Epoch (UTC): 26 May 2016 11:24:25
Eccentricity: 0.0031744
inclination: 98.4139°
perigee height: 749 km
apogee height: 795 km
right ascension of ascending node: 99.0862°
argument of perigee: 209.7146°
revolutions per day: 14.35898372
mean anomaly at epoch: 150.2238°
orbit number at epoch: 74604

The dashed part of the orbit path shows where the satellite is in the earth's shadow,  

DLR